[[{"header":{"parameterUnit":"m.s-1","parameterCategory":1,"la1":30.2991,"la2":30.254,"lo1":-89.0895,"lo2":-89.0444,"dy":0.0017,"dx":0.0017,"nx":28,"ny":28,"refTime":"2025-06-02T21:00:00:Z","depth":0,"parameterNumber":2,"parameterNumberName":"U-component_of_WINDS"},"data":[0,0,0,0,0,0,0,0,0,0,0,0,0,0,0,0,0,0,0,0,0,0,0,0,0,0,0,0,0,0,0,0,0,0,0,0,0,0,0,0,0,0,0,0,0,0,0,0,0,0,0,0,0,0,0,0,0,0,-5.1628,-5.1628,0,-5.1657,-5.1657,-5.1658,-5.1568,-5.1565,-5.1563,-5.156,-5.1589,-5.1592,-5.1596,0,0,0,0,0,0,0,0,0,0,0,0,0,-5.1496,-5.1499,-5.1628,-5.1628,-5.1629,-5.1657,-5.1657,-5.1658,-5.1568,-5.1565,-5.1562,-5.1559,-5.1588,-5.1592,-5.1596,0,0,0,0,0,0,0,0,0,0,0,0,0,-5.1542,-5.15,-5.1628,-5.1588,-5.1584,-5.1657,-5.1657,-5.1658,-5.1569,-5.1565,-5.1561,-5.1557,-5.1587,-5.1591,-5.1596,-5.1709,0,0,-5.1612,-5.1614,0,0,0,0,0,0,0,0,-5.154,-5.1547,-5.1593,-5.1591,-5.1587,-5.1605,-5.1621,-5.1675,-5.157,-5.1575,-5.156,-5.1555,-5.1598,-5.1601,-5.1616,-5.1711,-5.1712,-5.1612,-5.1615,-5.1617,-5.1619,0,0,0,0,0,0,0,-5.1536,-5.1545,-5.1639,-5.1594,-5.159,-5.1568,-5.157,-5.1631,-5.1609,-5.1574,-5.1568,-5.1572,-5.1595,-5.1611,-5.1616,-5.1712,-5.1612,-5.1616,-5.1619,-5.1621,-5.1902,-5.1906,0,0,0,0,0,0,-5.1539,-5.1543,-5.1638,-5.164,-5.1553,-5.1574,-5.1576,-5.1603,-5.1608,-5.1605,-5.1576,-5.1568,-5.1605,-5.161,-5.1616,-5.1749,-5.1617,-5.1622,-5.1625,-5.1898,-5.1903,-5.1908,0,0,0,0,0,0,-5.1536,-5.1548,-5.1637,-5.159,-5.16,-5.1581,-5.1612,-5.1606,-5.1622,-5.1609,-5.1605,-5.1596,-5.1602,-5.1609,-5.1687,-5.1749,-5.1624,-5.1629,-5.1893,-5.1899,-5.1906,-5.2015,0,0,0,0,0,0,-5.1533,-5.1548,-5.159,-5.1592,-5.1603,-5.1707,-5.1615,-5.1609,-5.1631,-5.1621,-5.1627,-5.1624,-5.1599,-5.168,-5.1692,-5.1753,-5.1633,-5.1887,-5.1896,-5.1904,-5.2006,-5.2024,-5.2041,0,0,0,0,0,-5.1528,-5.1619,-5.1592,-5.1604,-5.1655,-5.1711,-5.1717,-5.1686,-5.1636,-5.1679,-5.1671,-5.1624,-5.1741,-5.1689,-5.1701,-5.1765,-5.1883,-5.1893,-5.1903,-5.1998,-5.2021,-5.204,0,0,0,0,0,0,-5.1624,-5.1618,-5.1589,-5.1683,-5.1698,-5.1696,-5.1748,-5.1712,-5.1741,-5.1731,-5.1691,-5.1694,-5.1779,-5.178,-5.1722,-5.1875,-5.1803,-5.1816,-5.1871,-5.1893,-5.191,-5.1907,-5.1637,0,0,0,0,0,-5.1656,-5.1702,-5.1695,-5.1778,-5.1788,-5.1767,-5.179,-5.1766,-5.178,-5.1786,-5.1783,-5.1799,-5.1839,-5.1866,-5.1902,-5.2006,-5.2006,-5.2057,-5.2074,-5.2088,-5.21,-5.2155,-5.2177,-5.1941,-5.1941,-5.1941,0,0,-5.1722,-5.1725,-5.1756,-5.1798,-5.1807,-5.1855,-5.1773,-5.1828,-5.1864,-5.1794,-5.1867,-5.1867,-5.1881,-5.1973,-5.2013,-5.1977,-5.2166,-5.2101,-5.2113,-5.2116,-5.2168,-5.219,-5.221,-5.1948,-5.1947,-5.1946,0,0,-5.1868,-5.1875,-5.1946,-5.1957,-5.1972,-5.1958,-5.1976,-5.198,-5.1977,-5.205,-5.1999,-5.2042,-5.2111,-5.2124,-5.214,-5.2294,-5.2253,-5.2307,-5.2398,-5.2453,-5.2471,-5.2488,-5.2542,-5.2562,-5.2319,-5.2319,-5.232,0,-5.1948,-5.2019,-5.1987,-5.2045,-5.2065,-5.2006,-5.2078,-5.209,-5.2117,-5.2132,-5.2091,-5.2179,-5.2184,-5.2278,-5.2316,-5.2331,-5.235,-5.2305,-5.2471,-5.2487,-5.2502,-5.2554,-5.2574,-5.2326,-5.2325,-5.2324,-5.2324,0,-5.2118,-5.2168,-5.2224,-5.2251,-5.2278,-5.2343,-5.232,-5.2351,-5.2325,-5.2316,-5.2392,-5.2398,-5.2434,-5.2455,-5.243,-5.2546,-5.2523,-5.2478,-5.2404,-5.2532,-5.2579,-5.2599,-5.2335,-5.2333,-5.2331,-5.2329,0,0,-5.2321,-5.2332,-5.2353,-5.2365,-5.2379,-5.2417,-5.2481,-5.2517,-5.2545,-5.2566,-5.2618,-5.268,-5.2638,-5.2656,-5.2632,-5.2681,-5.2803,-5.2629,-5.2629,-5.2661,-5.2932,-5.2965,-5.2988,-5.2776,-5.278,-5.2783,-5.293,0,-5.2464,-5.2571,-5.2545,-5.2652,-5.2699,-5.2645,-5.27,-5.2715,-5.2709,-5.2748,-5.2741,-5.2785,-5.2728,-5.2738,-5.2784,-5.2778,-5.2856,-5.2768,-5.2824,-5.2826,-5.282,-5.3013,-5.3048,-5.3186,-5.2949,-5.2952,-5.2954,0,-5.2644,-5.2673,-5.2785,-5.2793,-5.2811,-5.2861,-5.2893,-5.2932,-5.2948,-5.294,-5.2962,-5.293,-5.2993,-5.2921,-5.3007,-5.2947,-5.2969,-5.297,-5.2975,-5.2977,-5.2896,-5.302,-5.3229,-5.325,-5.2983,-5.2981,-5.2979,0,-5.278,-5.2847,-5.2923,-5.2936,-5.2947,-5.2984,-5.299,-5.3002,-5.3027,-5.3056,-5.3071,-5.3107,-5.3126,-5.3155,-5.3133,-5.3083,-5.3223,-5.3149,-5.3218,-5.3219,-5.3248,-5.3246,-5.3463,-5.3266,-5.3265,-5.3265,-5.3264,0,-5.2941,-5.3011,-5.2985,-5.3031,-5.3109,-5.3079,-5.3157,-5.3157,-5.317,-5.3215,-5.3172,-5.3216,-5.3185,-5.3227,-5.3211,-5.3285,-5.3294,-5.329,-5.3284,-5.3293,-5.3293,-5.3305,-5.3294,-5.327,-5.3269,-5.3268,-5.3267,0,-5.3105,-5.309,-5.3169,-5.3174,-5.3178,-5.3235,-5.3239,-5.3283,-5.3275,-5.3334,-5.3346,-5.3333,-5.338,-5.3362,-5.3412,-5.3401,-5.3496,-5.3479,-5.349,-5.3485,-5.3555,-5.3549,-5.3786,-5.3815,-5.36,-5.3602,-5.3604,0,-5.3208,-5.3261,-5.3273,-5.33,-5.331,-5.3356,-5.3381,-5.3355,-5.3383,-5.3407,-5.3448,-5.3492,-5.3525,-5.3603,-5.3598,-5.3637,-5.3619,-5.37,-5.3624,-5.3632,-5.3619,-5.3616,-5.3621,-5.3714,-5.3717,-5.3719,-5.372,0,-5.3391,-5.3382,-5.342,-5.3456,-5.3488,-5.3515,-5.3538,-5.3564,-5.3539,-5.3573,-5.3621,-5.3647,-5.3699,-5.3743,-5.3778,-5.3785,-5.3749,-5.3745,-5.3763,-5.3771,-5.3775,-5.3773,-5.353,-5.3739,-5.3737,-5.3735,-5.3734,-5.3734,-5.3527,-5.3572,-5.3588,-5.3632,-5.3647,-5.3671,-5.3712,-5.3711,-5.375,-5.3791,-5.3773,-5.3829,-5.3846,-5.389,-5.3902,-5.3946,-5.3914,-5.394,-5.3946,-5.3953,-5.3961,-5.377,-5.3952,-5.3951,-5.3951,-5.395,-5.395,0,-5.3707,-5.3716,-5.3757,-5.3792,-5.3827,-5.3792,-5.3817,-5.3848,-5.3898,-5.3917,-5.3952,-5.4008,-5.4051,-5.4051,-5.4092,-5.4127,-5.4111,-5.4138,-5.4134,-5.4136,-5.3988,-5.3968,-5.415,-5.415,-5.415,-5.415,-5.415,-5.415,-5.3805,-5.388,-5.3873,-5.3955,-5.3963,-5.4018,-5.4035,-5.4057,-5.4072,-5.4137,-5.4173,-5.4173,-5.4185,-5.4227,-5.4265,-5.4264,-5.428,-5.4313,-5.4306,-5.4167,-5.4147,-5.4128,-5.4109,-5.4317,-5.4318,-5.4451,-5.4452,-5.4453]},{"header":{"parameterUnit":"m.s-1","parameterCategory":1,"la1":30.2991,"la2":30.254,"lo1":-89.0895,"lo2":-89.0444,"dy":0.0017,"dx":0.0017,"nx":28,"ny":28,"refTime":"2025-06-02T21:00:00:Z","depth":0,"parameterNumber":3,"parameterNumberName":"V-component_of_WINDS"},"data":[0,0,0,0,0,0,0,0,0,0,0,0,0,0,0,0,0,0,0,0,0,0,0,0,0,0,0,0,0,0,0,0,0,0,0,0,0,0,0,0,0,0,0,0,0,0,0,0,0,0,0,0,0,0,0,0,0,0,1.1617,1.1617,0,1.1589,1.1588,1.1588,1.1567,1.1567,1.1566,1.1566,1.1536,1.1535,1.1534,0,0,0,0,0,0,0,0,0,0,0,0,0,1.1652,1.1652,1.1617,1.1616,1.1616,1.1589,1.1588,1.1588,1.1567,1.1567,1.1566,1.1566,1.1536,1.1535,1.1534,0,0,0,0,0,0,0,0,0,0,0,0,0,1.1632,1.1652,1.1617,1.1602,1.1601,1.1589,1.1588,1.1588,1.1567,1.1567,1.1566,1.1566,1.1536,1.1535,1.1534,1.1534,0,0,1.1531,1.1531,0,0,0,0,0,0,0,0,1.1633,1.163,1.1605,1.1603,1.1602,1.1581,1.1589,1.157,1.1567,1.158,1.1566,1.1566,1.1551,1.1549,1.1544,1.1532,1.1531,1.1531,1.153,1.153,1.153,0,0,0,0,0,0,0,1.1634,1.1632,1.1606,1.1605,1.1603,1.1597,1.1594,1.1586,1.1567,1.1579,1.1577,1.1574,1.155,1.1545,1.1543,1.153,1.1531,1.153,1.153,1.1529,1.1518,1.1518,0,0,0,0,0,0,1.1638,1.1633,1.1606,1.1605,1.1617,1.1597,1.1593,1.1588,1.1567,1.1564,1.1574,1.1573,1.1547,1.1544,1.1542,1.154,1.153,1.1529,1.1529,1.1518,1.1518,1.1519,0,0,0,0,0,0,1.1639,1.1636,1.1608,1.1618,1.1614,1.1596,1.1591,1.1587,1.1582,1.1564,1.156,1.1573,1.1546,1.1543,1.1536,1.1539,1.1529,1.1528,1.1518,1.1518,1.1518,1.1537,0,0,0,0,0,0,1.164,1.1636,1.1636,1.1619,1.1614,1.1603,1.1591,1.1587,1.1581,1.1579,1.1561,1.1558,1.1546,1.1538,1.1535,1.1537,1.1527,1.1517,1.1518,1.1518,1.1536,1.1538,1.154,0,0,0,0,0,1.1641,1.1642,1.1636,1.1633,1.1613,1.1603,1.16,1.1586,1.1581,1.1581,1.1569,1.1559,1.1539,1.1537,1.1534,1.1536,1.1517,1.1518,1.1518,1.1535,1.1538,1.154,0,0,0,0,0,0,1.1659,1.1639,1.1633,1.1627,1.1617,1.1599,1.1598,1.1589,1.158,1.1578,1.1561,1.1558,1.1553,1.1544,1.1542,1.1535,1.1527,1.1527,1.1541,1.1543,1.1545,1.1547,1.1526,0,0,0,0,0,1.1662,1.1656,1.1639,1.1636,1.1631,1.1616,1.1611,1.1601,1.159,1.1585,1.1573,1.1562,1.1553,1.1548,1.1539,1.1535,1.1531,1.1535,1.1537,1.1539,1.1539,1.1537,1.1538,1.1521,1.1521,1.1521,0,0,1.1669,1.1657,1.1654,1.1639,1.163,1.1624,1.1612,1.1606,1.1601,1.1584,1.1577,1.1568,1.1554,1.1549,1.1546,1.1542,1.1543,1.1539,1.1541,1.154,1.1538,1.1539,1.1541,1.1521,1.1521,1.1521,0,0,1.1677,1.1668,1.1665,1.1657,1.1644,1.1634,1.1633,1.1617,1.1611,1.1604,1.1591,1.1585,1.1571,1.1562,1.1555,1.1563,1.1553,1.1561,1.157,1.1568,1.157,1.1571,1.1574,1.1575,1.1561,1.1561,1.1561,0,1.1687,1.1677,1.1664,1.1659,1.1653,1.1639,1.1636,1.1628,1.1613,1.1609,1.1604,1.1587,1.1576,1.157,1.1572,1.1567,1.1566,1.1562,1.1571,1.1572,1.1573,1.1575,1.1576,1.1562,1.1562,1.1562,1.1562,0,1.169,1.1684,1.1683,1.1669,1.1663,1.1659,1.1645,1.1641,1.1633,1.1623,1.1617,1.1605,1.1594,1.1591,1.1583,1.1584,1.1581,1.1574,1.1565,1.1576,1.1578,1.1578,1.1564,1.1563,1.1563,1.1563,0,0,1.1707,1.1688,1.1687,1.1682,1.1667,1.1662,1.1658,1.1648,1.1644,1.1635,1.1631,1.162,1.1614,1.1606,1.1597,1.1596,1.1603,1.1589,1.1588,1.1592,1.1604,1.1609,1.161,1.1597,1.1597,1.1597,1.1605,0,1.1713,1.1704,1.1694,1.1689,1.1683,1.1671,1.1667,1.1658,1.165,1.1643,1.1634,1.1627,1.1619,1.1615,1.1613,1.1603,1.1605,1.1602,1.1593,1.1593,1.1596,1.1611,1.1616,1.1624,1.1606,1.1606,1.1606,0,1.1718,1.1711,1.1706,1.1693,1.169,1.1687,1.1678,1.1672,1.1662,1.1656,1.1649,1.1639,1.1634,1.1628,1.1621,1.1619,1.1615,1.1609,1.1609,1.1607,1.1599,1.1609,1.1626,1.1627,1.1607,1.1607,1.1607,0,1.1731,1.172,1.1715,1.1711,1.1696,1.1694,1.1688,1.1677,1.1672,1.1664,1.1661,1.1652,1.1647,1.1641,1.1629,1.1625,1.1624,1.1615,1.1618,1.1619,1.1617,1.1617,1.1633,1.1616,1.1616,1.1616,1.1616,0,1.1739,1.1736,1.1721,1.1718,1.1715,1.1703,1.1701,1.1693,1.1684,1.168,1.1669,1.1665,1.165,1.1645,1.1636,1.1631,1.1629,1.1624,1.1622,1.1625,1.1626,1.1621,1.162,1.1616,1.1616,1.1616,1.1616,0,1.1752,1.1742,1.1736,1.1724,1.172,1.1719,1.1707,1.1704,1.1696,1.1691,1.1689,1.1676,1.1669,1.1657,1.1647,1.1641,1.1638,1.1634,1.1642,1.164,1.1644,1.1643,1.1656,1.1658,1.164,1.1641,1.1641,0,1.1757,1.1755,1.1743,1.1739,1.1734,1.1728,1.1724,1.1712,1.1708,1.1697,1.1696,1.1688,1.1681,1.1671,1.166,1.1653,1.1648,1.1653,1.1647,1.165,1.1648,1.1648,1.1648,1.1654,1.1655,1.1655,1.1655,0,1.1768,1.1763,1.1757,1.175,1.1745,1.1739,1.1732,1.173,1.1716,1.1712,1.1706,1.1701,1.1691,1.1683,1.1674,1.1668,1.1659,1.1658,1.1658,1.166,1.1665,1.1662,1.1645,1.1657,1.1657,1.1657,1.1656,1.1656,1.1777,1.1775,1.1766,1.176,1.1754,1.1748,1.1745,1.1737,1.1732,1.1723,1.1717,1.1711,1.1701,1.1689,1.1683,1.1678,1.1674,1.1674,1.1674,1.1674,1.1675,1.1667,1.1676,1.1676,1.1676,1.1676,1.1676,0,1.1787,1.1781,1.1776,1.1767,1.1762,1.1756,1.1748,1.1745,1.174,1.1733,1.1727,1.172,1.1713,1.1703,1.1695,1.1693,1.1689,1.1692,1.1691,1.169,1.1679,1.168,1.1695,1.1695,1.1695,1.1695,1.1695,1.1695,1.1791,1.1788,1.1782,1.1776,1.177,1.1764,1.1761,1.1755,1.1749,1.1742,1.1737,1.1731,1.1722,1.1714,1.1708,1.1705,1.1703,1.1706,1.1702,1.1692,1.169,1.1689,1.1689,1.1706,1.1706,1.1713,1.1713,1.1713]}]]